EXS7MA LEPA-EGCC

Flight info

Callsign EXS7MA
Flight time 2h 6m
Altitude 38000
Route DRAGO DCT PAPOS DCT UMURE N863 GIROM DCT AGN DCT SECHE DCT UVELI DCT CNA DCT TUPAR UN861 ANG DCT AKIKI UN867 AVANT UM184 HEMEL T420 ELVOS
Aircraft B738/M-SDE2E3FGHIRWXY/LB1

Departure

Time 2026-05-04 13:30
Airport Palma de Mallorca Airport (LEPA)

Arrival

Time 2026-05-04 15:37
Airport Manchester Airport (EGCC)
Time Latitude Longitude Altitude Speed Heading
2026-05-04 12:35 39.54995 2.73324 37 ft 0 kts 185°
2026-05-04 13:19 39.54996 2.73324 37 ft 2 kts 185°
2026-05-04 13:19 39.55018 2.73321 35 ft 4 kts 142°
2026-05-04 13:19 39.55032 2.73294 34 ft 4 kts 103°
2026-05-04 13:20 39.55035 2.73260 34 ft 4 kts 83°
2026-05-04 13:20 39.55032 2.73240 35 ft 0 kts 72°
2026-05-04 13:23 39.55032 2.73241 35 ft 0 kts 72°
2026-05-04 13:23 39.55035 2.73255 34 ft 3 kts 72°
2026-05-04 13:24 39.55048 2.73302 36 ft 8 kts 69°
2026-05-04 13:24 39.55078 2.73382 37 ft 11 kts 59°
2026-05-04 13:24 39.55116 2.73463 37 ft 10 kts 58°
2026-05-04 13:25 39.55194 2.73610 37 ft 9 kts 16°
2026-05-04 13:25 39.55254 2.73576 37 ft 10 kts 329°
2026-05-04 13:25 39.55319 2.73525 37 ft 12 kts 328°
2026-05-04 13:25 39.55391 2.73468 36 ft 12 kts 329°
2026-05-04 13:26 39.55453 2.73470 36 ft 9 kts 47°
2026-05-04 13:26 39.55487 2.73540 37 ft 9 kts 57°
2026-05-04 13:26 39.55540 2.73563 37 ft 9 kts 336°
2026-05-04 13:26 39.55593 2.73522 37 ft 9 kts 328°
2026-05-04 13:27 39.55656 2.73516 37 ft 11 kts 36°
2026-05-04 13:27 39.55712 2.73622 37 ft 17 kts 58°
2026-05-04 13:27 39.55775 2.73756 37 ft 17 kts 58°
2026-05-04 13:27 39.55837 2.73887 37 ft 17 kts 58°
2026-05-04 13:28 39.55897 2.74014 36 ft 16 kts 58°
2026-05-04 13:28 39.55955 2.74136 37 ft 16 kts 58°
2026-05-04 13:28 39.55991 2.74213 37 ft 8 kts 58°
2026-05-04 13:28 39.56033 2.74262 37 ft 8 kts 30°
2026-05-04 13:29 39.56085 2.74299 36 ft 9 kts 28°
2026-05-04 13:29 39.56147 2.74341 37 ft 11 kts 25°
2026-05-04 13:29 39.56215 2.74326 36 ft 10 kts 317°
2026-05-04 13:29 39.56228 2.74267 37 ft 6 kts 244°
2026-05-04 13:30 39.56180 2.74165 37 ft 37 kts 238°
2026-05-04 13:30 39.55921 2.73618 37 ft 103 kts 238°
2026-05-04 13:30 39.55442 2.72616 49 ft 155 kts 237°
2026-05-04 13:30 39.54876 2.71394 720 ft 155 kts 239°
2026-05-04 13:31 39.54298 2.70180 1411 ft 160 kts 236°
2026-05-04 13:31 39.53888 2.69369 1953 ft 158 kts 235°
2026-05-04 13:31 39.53260 2.68131 2439 ft 177 kts 236°
2026-05-04 13:31 39.52291 2.66231 2850 ft 199 kts 236°
2026-05-04 13:32 39.51788 2.65202 3153 ft 205 kts 242°
2026-05-04 13:32 39.51613 2.63295 3377 ft 230 kts 284°
2026-05-04 13:32 39.52444 2.61429 3712 ft 254 kts 302°
2026-05-04 13:32 39.53530 2.59558 4332 ft 261 kts 303°
2026-05-04 13:33 39.54642 2.57684 4895 ft 265 kts 303°
2026-05-04 13:33 39.55776 2.55770 5655 ft 270 kts 303°
2026-05-04 13:33 39.56921 2.53822 6460 ft 273 kts 302°
2026-05-04 13:33 39.58071 2.51855 7252 ft 274 kts 302°
2026-05-04 13:34 39.59223 2.49872 7981 ft 277 kts 302°
2026-05-04 13:34 39.60388 2.47856 8661 ft 281 kts 302°
2026-05-04 13:34 39.61565 2.45813 9380 ft 284 kts 302°
2026-05-04 13:34 39.62748 2.43753 10077 ft 286 kts 302°
2026-05-04 13:35 39.63963 2.41632 10397 ft 303 kts 302°
2026-05-04 13:35 39.66640 2.36936 10777 ft 342 kts 302°
2026-05-04 13:35 39.68071 2.34434 11285 ft 348 kts 302°
2026-05-04 13:36 39.69497 2.31941 11957 ft 350 kts 302°
2026-05-04 13:36 39.70954 2.29395 12698 ft 351 kts 302°
2026-05-04 13:36 39.72412 2.26842 13417 ft 353 kts 302°
2026-05-04 13:36 39.73879 2.24268 14084 ft 356 kts 302°
2026-05-04 13:37 39.75358 2.21669 14744 ft 358 kts 302°
2026-05-04 13:37 39.76841 2.19060 15437 ft 360 kts 302°
2026-05-04 13:37 39.78332 2.16436 16122 ft 362 kts 302°
2026-05-04 13:37 39.79830 2.13794 16767 ft 366 kts 302°
2026-05-04 13:38 39.81349 2.11113 17381 ft 370 kts 302°
2026-05-04 13:38 39.82879 2.08412 18059 ft 372 kts 302°
2026-05-04 13:38 39.84417 2.05696 18674 ft 373 kts 301°
2026-05-04 13:38 39.85965 2.02958 19231 ft 376 kts 301°
2026-05-04 13:39 39.87519 2.00206 19773 ft 379 kts 301°
2026-05-04 13:39 39.89085 1.97432 20298 ft 382 kts 301°
2026-05-04 13:39 39.90663 1.94633 20838 ft 384 kts 300°
2026-05-04 13:39 39.92250 1.91817 21366 ft 387 kts 300°
2026-05-04 13:40 39.93849 1.88978 21903 ft 390 kts 300°
2026-05-04 13:40 39.95458 1.86117 22371 ft 393 kts 300°
2026-05-04 13:40 39.97081 1.83228 22853 ft 396 kts 299°
2026-05-04 13:40 39.98728 1.80337 23352 ft 401 kts 302°
2026-05-04 13:41 40.00717 1.77719 23758 ft 414 kts 313°
2026-05-04 13:41 40.03104 1.75516 24174 ft 425 kts 322°
2026-05-04 13:41 40.05815 1.73827 24524 ft 437 kts 330°
2026-05-04 13:42 40.11502 1.70962 25254 ft 444 kts 332°
2026-05-04 13:42 40.14403 1.69531 25620 ft 447 kts 332°
2026-05-04 13:42 40.17317 1.68077 25980 ft 449 kts 332°
2026-05-04 13:42 40.20247 1.66595 26330 ft 452 kts 331°
2026-05-04 13:43 40.23185 1.65092 26672 ft 455 kts 331°
2026-05-04 13:43 40.26135 1.63574 27013 ft 458 kts 331°
2026-05-04 13:43 40.29109 1.62036 27291 ft 462 kts 331°
2026-05-04 13:43 40.32105 1.60485 27620 ft 464 kts 331°
2026-05-04 13:44 40.35117 1.58926 27962 ft 466 kts 331°
2026-05-04 13:44 40.38140 1.57360 28278 ft 468 kts 331°
2026-05-04 13:44 40.41177 1.55786 28576 ft 471 kts 331°
2026-05-04 13:44 40.44235 1.54199 28865 ft 474 kts 331°
2026-05-04 13:45 40.47308 1.52603 29206 ft 476 kts 331°
2026-05-04 13:45 40.50399 1.50996 29482 ft 479 kts 331°
2026-05-04 13:45 40.53504 1.49380 29766 ft 482 kts 330°
2026-05-04 13:45 40.56633 1.47750 29941 ft 486 kts 330°
2026-05-04 13:46 40.62958 1.44452 29932 ft 488 kts 331°
2026-05-04 13:46 40.69227 1.41190 29924 ft 482 kts 330°
2026-05-04 13:47 40.75467 1.37927 29935 ft 483 kts 330°
2026-05-04 13:47 40.81712 1.34652 29934 ft 484 kts 330°
2026-05-04 13:48 40.87970 1.31367 29936 ft 484 kts 330°
2026-05-04 13:48 40.94237 1.28070 29935 ft 485 kts 331°
2026-05-04 13:49 41.00507 1.24766 29953 ft 485 kts 331°
2026-05-04 13:49 41.03653 1.23104 30087 ft 488 kts 331°
2026-05-04 13:49 41.06805 1.21439 30441 ft 486 kts 331°
2026-05-04 13:50 41.09938 1.19785 30874 ft 483 kts 330°
2026-05-04 13:50 41.13058 1.18156 31306 ft 482 kts 333°
2026-05-04 13:50 41.16302 1.16927 31683 ft 489 kts 342°
2026-05-04 13:50 41.19707 1.16369 31998 ft 496 kts 349°
2026-05-04 13:51 41.23154 1.16084 32272 ft 497 kts 351°
2026-05-04 13:51 41.26613 1.15834 32523 ft 498 kts 351°
2026-05-04 13:51 41.30060 1.15530 32801 ft 497 kts 349°
2026-05-04 13:51 41.33504 1.15179 33123 ft 496 kts 349°
2026-05-04 13:52 41.40333 1.14456 33746 ft 495 kts 349°
2026-05-04 13:52 41.43765 1.14099 34024 ft 495 kts 349°
2026-05-04 13:52 41.47198 1.13745 34246 ft 495 kts 349°
2026-05-04 13:53 41.50631 1.13391 34506 ft 494 kts 349°
2026-05-04 13:53 41.54056 1.13037 34778 ft 493 kts 349°
2026-05-04 13:53 41.57472 1.12673 35035 ft 492 kts 349°
2026-05-04 13:54 41.64301 1.11910 35439 ft 493 kts 349°
2026-05-04 13:54 41.67714 1.11531 35725 ft 491 kts 349°
2026-05-04 13:54 41.74512 1.10796 36263 ft 489 kts 349°
2026-05-04 13:55 41.77907 1.10442 36509 ft 489 kts 349°
2026-05-04 13:55 41.84696 1.09733 36948 ft 488 kts 349°
2026-05-04 13:55 41.88078 1.09374 37228 ft 486 kts 349°
2026-05-04 13:56 41.91444 1.09016 37509 ft 484 kts 349°
2026-05-04 13:56 41.94755 1.08661 37749 ft 483 kts 349°
2026-05-04 13:56 42.01458 1.07940 37953 ft 486 kts 349°
2026-05-04 13:57 42.04832 1.07576 37958 ft 486 kts 349°
2026-05-04 13:58 42.18232 1.06141 37935 ft 480 kts 349°
2026-05-04 13:58 42.28182 1.05069 37925 ft 477 kts 349°
2026-05-04 13:59 42.34788 1.04354 37919 ft 475 kts 349°
2026-05-04 14:00 42.44689 1.03278 37907 ft 481 kts 349°
2026-05-04 14:00 42.54791 1.02179 37927 ft 488 kts 349°
2026-05-04 14:01 42.61519 1.01449 37975 ft 486 kts 350°
2026-05-04 14:02 42.71610 1.00350 37921 ft 482 kts 349°
2026-05-04 14:02 42.78300 0.99611 37902 ft 482 kts 350°
2026-05-04 14:03 42.84991 0.98879 37914 ft 481 kts 350°
2026-05-04 14:03 42.91640 0.98097 37904 ft 476 kts 345°
2026-05-04 14:03 42.94822 0.97076 37925 ft 465 kts 336°
2026-05-04 14:04 43.00967 0.94302 37912 ft 465 kts 335°
2026-05-04 14:04 43.07117 0.91467 37922 ft 467 kts 335°
2026-05-04 14:05 43.16421 0.87287 37925 ft 472 kts 336°
2026-05-04 14:06 43.22688 0.84505 37939 ft 475 kts 336°
2026-05-04 14:06 43.28993 0.81704 37927 ft 478 kts 336°
2026-05-04 14:07 43.35337 0.78878 37935 ft 481 kts 336°
2026-05-04 14:07 43.41713 0.76029 37960 ft 483 kts 336°
2026-05-04 14:08 43.48093 0.73175 37921 ft 478 kts 336°
2026-05-04 14:08 43.54363 0.70368 37920 ft 471 kts 336°
2026-05-04 14:09 43.63694 0.66166 37943 ft 470 kts 336°
2026-05-04 14:10 43.73013 0.61955 37932 ft 470 kts 336°
2026-05-04 14:10 43.79189 0.59158 37937 ft 470 kts 336°
2026-05-04 14:11 43.85415 0.56333 37949 ft 471 kts 336°
2026-05-04 14:11 43.94781 0.52071 37937 ft 473 kts 336°
2026-05-04 14:12 44.01036 0.49217 37939 ft 474 kts 336°
2026-05-04 14:13 44.10458 0.44905 37947 ft 477 kts 337°
2026-05-04 14:13 44.16771 0.42009 37939 ft 478 kts 337°
2026-05-04 14:14 44.23078 0.39110 37943 ft 478 kts 337°
2026-05-04 14:14 44.32543 0.34746 37926 ft 477 kts 338°
2026-05-04 14:15 44.45150 0.28910 37936 ft 477 kts 338°
2026-05-04 14:16 44.54544 0.24544 37915 ft 475 kts 338°
2026-05-04 14:17 44.63948 0.20158 37916 ft 474 kts 338°
2026-05-04 14:18 44.73318 0.15772 37913 ft 473 kts 338°
2026-05-04 14:19 44.85797 0.09909 37910 ft 473 kts 338°
2026-05-04 14:19 44.92038 0.06965 37909 ft 473 kts 338°
2026-05-04 14:20 44.98284 0.04013 37909 ft 474 kts 338°
2026-05-04 14:20 45.04540 0.01050 37909 ft 475 kts 338°
2026-05-04 14:21 45.13949 -0.03420 37921 ft 476 kts 338°
2026-05-04 14:21 45.20196 -0.06396 37931 ft 477 kts 338°
2026-05-04 14:22 45.26495 -0.09403 37918 ft 478 kts 338°
2026-05-04 14:22 45.32798 -0.12420 37915 ft 478 kts 338°
2026-05-04 14:23 45.41228 -0.16466 37931 ft 478 kts 338°
2026-05-04 14:24 45.47516 -0.19492 37929 ft 477 kts 338°
2026-05-04 14:24 45.53805 -0.22526 37936 ft 476 kts 338°
2026-05-04 14:25 45.60080 -0.25560 37948 ft 476 kts 338°
2026-05-04 14:25 45.69444 -0.30102 37949 ft 475 kts 338°
2026-05-04 14:26 45.75702 -0.33146 37930 ft 475 kts 338°
2026-05-04 14:26 45.81963 -0.36199 37919 ft 476 kts 338°
2026-05-04 14:27 45.88231 -0.39263 37920 ft 476 kts 338°
2026-05-04 14:27 45.94499 -0.42334 37924 ft 476 kts 338°
2026-05-04 14:28 46.00772 -0.45415 37932 ft 477 kts 338°
2026-05-04 14:28 46.07053 -0.48507 37928 ft 477 kts 338°
2026-05-04 14:29 46.19649 -0.54726 37933 ft 479 kts 339°
2026-05-04 14:30 46.26141 -0.56755 37940 ft 482 kts 348°
2026-05-04 14:31 46.36103 -0.58933 37926 ft 482 kts 349°
2026-05-04 14:32 46.49383 -0.62046 37933 ft 481 kts 348°
2026-05-04 14:32 46.55927 -0.63636 37940 ft 480 kts 348°
2026-05-04 14:33 46.62517 -0.65243 37948 ft 479 kts 348°
2026-05-04 14:33 46.69091 -0.66845 37942 ft 478 kts 348°
2026-05-04 14:34 46.75642 -0.68445 37943 ft 477 kts 348°
2026-05-04 14:34 46.82190 -0.70047 37953 ft 476 kts 348°
2026-05-04 14:35 46.88717 -0.71648 37950 ft 475 kts 348°
2026-05-04 14:35 46.95244 -0.73253 37953 ft 475 kts 348°
2026-05-04 14:36 47.01755 -0.74858 37952 ft 475 kts 348°
2026-05-04 14:36 47.08271 -0.76469 37957 ft 475 kts 348°
2026-05-04 14:37 47.14795 -0.78086 37958 ft 476 kts 348°
2026-05-04 14:37 47.21328 -0.79709 37966 ft 476 kts 348°
2026-05-04 14:38 47.27872 -0.81338 37954 ft 477 kts 348°
2026-05-04 14:38 47.34421 -0.82973 37967 ft 478 kts 348°
2026-05-04 14:39 47.40979 -0.84615 37958 ft 478 kts 348°
2026-05-04 14:39 47.47546 -0.86262 37946 ft 479 kts 348°
2026-05-04 14:40 47.56204 -0.88441 37946 ft 479 kts 348°
2026-05-04 14:41 47.60484 -0.89520 37950 ft 479 kts 349°
2026-05-04 14:42 47.73599 -0.92839 37947 ft 477 kts 348°
2026-05-04 14:42 47.80144 -0.94503 37947 ft 477 kts 348°
2026-05-04 14:43 47.86684 -0.96168 37945 ft 476 kts 348°
2026-05-04 14:43 47.93214 -0.97836 37941 ft 476 kts 348°
2026-05-04 14:44 47.99740 -0.99507 37944 ft 476 kts 348°
2026-05-04 14:44 48.06259 -1.01181 37942 ft 475 kts 348°
2026-05-04 14:45 48.12773 -1.02857 37942 ft 475 kts 348°
2026-05-04 14:45 48.19279 -1.04536 37945 ft 475 kts 348°
2026-05-04 14:46 48.25741 -1.06208 37954 ft 475 kts 348°
2026-05-04 14:46 48.32250 -1.07896 37953 ft 475 kts 348°
2026-05-04 14:47 48.38759 -1.09589 37941 ft 475 kts 348°
2026-05-04 14:47 48.45266 -1.11285 37943 ft 474 kts 348°
2026-05-04 14:48 48.51765 -1.12984 37954 ft 474 kts 348°
2026-05-04 14:48 48.58264 -1.14687 37959 ft 474 kts 348°
2026-05-04 14:49 48.64757 -1.16393 37957 ft 473 kts 348°
2026-05-04 14:49 48.71250 -1.18103 37965 ft 473 kts 348°
2026-05-04 14:50 48.77722 -1.19813 37959 ft 472 kts 348°
2026-05-04 14:50 48.84193 -1.21527 37964 ft 472 kts 348°
2026-05-04 14:51 48.90655 -1.23242 37963 ft 471 kts 348°
2026-05-04 14:51 48.97108 -1.24960 37964 ft 470 kts 348°
2026-05-04 14:52 49.03554 -1.26681 37967 ft 470 kts 348°
2026-05-04 14:52 49.09993 -1.28404 37974 ft 469 kts 348°
2026-05-04 14:53 49.16427 -1.30131 37970 ft 469 kts 348°
2026-05-04 14:53 49.22850 -1.31859 37975 ft 469 kts 348°
2026-05-04 14:54 49.29287 -1.33536 37988 ft 470 kts 353°
2026-05-04 14:54 49.35776 -1.34101 37990 ft 471 kts 358°
2026-05-04 14:55 49.42327 -1.34343 37993 ft 471 kts 357°
2026-05-04 14:55 49.48882 -1.34670 37993 ft 471 kts 357°
2026-05-04 14:56 49.55453 -1.35080 38003 ft 472 kts 356°
2026-05-04 14:56 49.62015 -1.35513 37993 ft 472 kts 356°
2026-05-04 14:57 49.68582 -1.35944 37994 ft 473 kts 356°
2026-05-04 14:57 49.75156 -1.36372 37997 ft 473 kts 357°
2026-05-04 14:58 49.81712 -1.36798 37994 ft 472 kts 358°
2026-05-04 14:58 49.88202 -1.35537 37999 ft 472 kts 15°
2026-05-04 14:59 49.94513 -1.32705 37988 ft 472 kts 16°
2026-05-04 15:00 50.03973 -1.28423 37984 ft 471 kts 16°
2026-05-04 15:00 50.07436 -1.26896 37987 ft 471 kts 15°
2026-05-04 15:01 50.16884 -1.22763 37992 ft 470 kts 15°
2026-05-04 15:01 50.23136 -1.20022 37987 ft 469 kts 15°
2026-05-04 15:02 50.29421 -1.17256 37992 ft 469 kts 15°
2026-05-04 15:02 50.35704 -1.14482 37994 ft 469 kts 15°
2026-05-04 15:03 50.41978 -1.11704 37994 ft 468 kts 15°
2026-05-04 15:03 50.48245 -1.08921 37998 ft 468 kts 16°
2026-05-04 15:04 50.54511 -1.06132 37995 ft 468 kts 16°
2026-05-04 15:04 50.60769 -1.03337 37993 ft 468 kts 16°
2026-05-04 15:05 50.67029 -1.00535 37999 ft 468 kts 16°
2026-05-04 15:05 50.73369 -0.98326 37993 ft 467 kts
2026-05-04 15:06 50.79798 -0.97807 37997 ft 467 kts
2026-05-04 15:07 50.89529 -0.97179 37996 ft 467 kts
2026-05-04 15:07 50.96062 -0.96651 37998 ft 467 kts
2026-05-04 15:08 51.02509 -0.96092 37990 ft 467 kts
2026-05-04 15:08 51.09006 -0.95522 37995 ft 467 kts
2026-05-04 15:09 51.15494 -0.94954 37998 ft 467 kts
2026-05-04 15:09 51.21984 -0.94387 37993 ft 467 kts
2026-05-04 15:10 51.31713 -0.93535 38027 ft 467 kts
2026-05-04 15:11 51.40350 -0.92775 38016 ft 467 kts
2026-05-04 15:11 51.46840 -0.92202 38006 ft 467 kts
2026-05-04 15:12 51.53330 -0.91628 38022 ft 467 kts
2026-05-04 15:12 51.59836 -0.91050 37750 ft 471 kts
2026-05-04 15:12 51.67373 -0.90377 37186 ft 470 kts
2026-05-04 15:13 51.73101 -0.89864 36368 ft 466 kts
2026-05-04 15:13 51.76343 -0.89574 35755 ft 466 kts
2026-05-04 15:13 51.79584 -0.89284 35121 ft 468 kts
2026-05-04 15:13 51.82839 -0.88992 34469 ft 469 kts
2026-05-04 15:14 51.86096 -0.88700 33861 ft 470 kts
2026-05-04 15:14 51.89350 -0.88407 33353 ft 465 kts
2026-05-04 15:14 51.92571 -0.88116 32847 ft 462 kts
2026-05-04 15:14 51.95763 -0.87828 32364 ft 458 kts
2026-05-04 15:15 51.98935 -0.87541 31890 ft 454 kts
2026-05-04 15:15 52.02077 -0.87256 31428 ft 451 kts
2026-05-04 15:15 52.05157 -0.86977 30985 ft 448 kts
2026-05-04 15:16 52.11326 -0.87361 29834 ft 442 kts 345°
2026-05-04 15:16 52.14238 -0.88830 29324 ft 435 kts 334°
2026-05-04 15:16 52.19662 -0.92902 28410 ft 424 kts 332°
2026-05-04 15:17 52.22321 -0.94919 27981 ft 419 kts 333°
2026-05-04 15:17 52.27564 -0.98855 27136 ft 411 kts 333°
2026-05-04 15:17 52.30151 -1.00784 26715 ft 407 kts 334°
2026-05-04 15:18 52.32718 -1.02694 26281 ft 404 kts 334°
2026-05-04 15:18 52.35265 -1.04589 25868 ft 401 kts 334°
2026-05-04 15:18 52.37791 -1.06470 25463 ft 397 kts 334°
2026-05-04 15:19 52.42787 -1.10197 24645 ft 392 kts 334°
2026-05-04 15:19 52.45261 -1.12046 24239 ft 389 kts 334°
2026-05-04 15:19 52.50165 -1.15718 23409 ft 385 kts 334°
2026-05-04 15:20 52.52597 -1.17544 22937 ft 383 kts 334°
2026-05-04 15:20 52.55013 -1.19358 22525 ft 380 kts 334°
2026-05-04 15:20 52.57406 -1.21159 22123 ft 377 kts 334°
2026-05-04 15:20 52.59777 -1.22945 21714 ft 374 kts 334°
2026-05-04 15:21 52.62134 -1.24723 21321 ft 371 kts 334°
2026-05-04 15:21 52.64472 -1.26487 20921 ft 368 kts 334°
2026-05-04 15:21 52.69093 -1.29981 20141 ft 363 kts 334°
2026-05-04 15:22 52.71354 -1.31813 19737 ft 362 kts 329°
2026-05-04 15:22 52.73520 -1.33944 19345 ft 363 kts 327°
2026-05-04 15:22 52.77786 -1.38445 18502 ft 364 kts 326°
2026-05-04 15:23 52.79915 -1.40686 18033 ft 362 kts 326°
2026-05-04 15:23 52.82044 -1.42904 17566 ft 361 kts 327°
2026-05-04 15:23 52.84159 -1.45091 17127 ft 358 kts 327°
2026-05-04 15:23 52.86267 -1.47262 16699 ft 356 kts 327°
2026-05-04 15:24 52.90442 -1.51554 15875 ft 351 kts 327°
2026-05-04 15:24 52.94563 -1.55795 15061 ft 346 kts 327°
2026-05-04 15:25 52.96603 -1.57900 14662 ft 344 kts 327°
2026-05-04 15:25 52.98633 -1.59995 14262 ft 343 kts 327°
2026-05-04 15:25 53.00653 -1.62082 13868 ft 341 kts 327°
2026-05-04 15:26 53.04660 -1.66231 13000 ft 337 kts 326°
2026-05-04 15:26 53.06439 -1.68722 12588 ft 333 kts 310°
2026-05-04 15:26 53.09329 -1.74548 11734 ft 319 kts 309°
2026-05-04 15:27 53.10751 -1.77342 11226 ft 313 kts 309°
2026-05-04 15:27 53.14088 -1.81727 10317 ft 313 kts 343°
2026-05-04 15:28 53.18250 -1.83388 9809 ft 301 kts 345°
2026-05-04 15:28 53.20279 -1.84203 9351 ft 295 kts 345°
2026-05-04 15:28 53.24171 -1.85813 8599 ft 281 kts 345°
2026-05-04 15:29 53.26041 -1.86601 8257 ft 274 kts 345°
2026-05-04 15:30 53.33056 -1.89595 6995 ft 249 kts 345°
2026-05-04 15:30 53.37962 -1.91702 6133 ft 236 kts 345°
2026-05-04 15:31 53.41088 -1.93047 5523 ft 229 kts 345°
2026-05-04 15:31 53.42619 -1.93707 5242 ft 224 kts 345°
2026-05-04 15:32 53.46564 -1.97000 4400 ft 205 kts 320°
2026-05-04 15:32 53.47964 -2.00703 3908 ft 190 kts 261°
2026-05-04 15:33 53.46598 -2.04321 3575 ft 185 kts 233°
2026-05-04 15:34 53.44261 -2.09236 2854 ft 175 kts 232°
2026-05-04 15:34 53.43498 -2.10801 2615 ft 173 kts 231°
2026-05-04 15:34 53.41966 -2.13947 2145 ft 176 kts 231°
2026-05-04 15:35 53.40426 -2.17111 1661 ft 174 kts 231°
2026-05-04 15:35 53.39680 -2.18646 1424 ft 165 kts 231°
2026-05-04 15:35 53.38983 -2.20079 1222 ft 157 kts 231°
2026-05-04 15:36 53.37643 -2.22835 768 ft 150 kts 231°
2026-05-04 15:36 53.36988 -2.24183 569 ft 149 kts 231°
2026-05-04 15:36 53.36332 -2.25517 365 ft 147 kts 231°
2026-05-04 15:37 53.35706 -2.26804 267 ft 133 kts 232°
2026-05-04 15:37 53.35256 -2.27742 237 ft 73 kts 231°
2026-05-04 15:37 53.35098 -2.28068 233 ft 10 kts 230°
2026-05-04 15:37 53.35107 -2.28166 232 ft 11 kts 320°
2026-05-04 15:38 53.35180 -2.28201 229 ft 11 kts
2026-05-04 15:38 53.35257 -2.28188 231 ft 11 kts
2026-05-04 15:38 53.35347 -2.28173 236 ft 13 kts
2026-05-04 15:38 53.35439 -2.28154 239 ft 14 kts 11°
2026-05-04 15:39 53.35536 -2.28075 233 ft 15 kts 41°
2026-05-04 15:39 53.35597 -2.27957 238 ft 11 kts 51°
2026-05-04 15:39 53.35719 -2.27879 245 ft 6 kts
2026-05-04 15:40 53.35748 -2.27874 246 ft 3 kts
2026-05-04 15:40 53.35759 -2.27872 247 ft 1 kts
2026-05-04 15:40 53.35764 -2.27871 247 ft 0 kts
2026-05-04 15:45 53.35767 -2.27871 247 ft 2 kts
2026-05-04 15:45 53.35804 -2.27865 249 ft 8 kts
2026-05-04 15:46 53.35875 -2.27852 253 ft 11 kts
2026-05-04 15:46 53.35955 -2.27860 254 ft 13 kts 338°
2026-05-04 15:46 53.36029 -2.27956 254 ft 14 kts 319°
2026-05-04 15:46 53.36112 -2.28078 254 ft 18 kts 317°
2026-05-04 15:47 53.36210 -2.28244 254 ft 21 kts 314°
2026-05-04 15:47 53.36300 -2.28395 254 ft 15 kts 315°
2026-05-04 15:47 53.36367 -2.28473 254 ft 12 kts 347°
2026-05-04 15:47 53.36441 -2.28525 254 ft 13 kts 318°
2026-05-04 15:48 53.36505 -2.28632 254 ft 13 kts 315°
2026-05-04 15:48 53.36566 -2.28739 254 ft 13 kts 309°
2026-05-04 15:48 53.36639 -2.28891 254 ft 7 kts 344°
2026-05-04 15:49 53.36680 -2.28930 254 ft 7 kts 317°
2026-05-04 15:49 53.36720 -2.28997 254 ft 9 kts 314°
2026-05-04 15:49 53.36768 -2.29038 254 ft 7 kts
2026-05-04 15:49 53.36815 -2.29014 254 ft 7 kts 21°
2026-05-04 15:50 53.36829 -2.28973 254 ft 4 kts 109°
2026-05-04 15:50 53.36814 -2.28941 254 ft 4 kts 131°
2026-05-04 15:50 53.36805 -2.28926 254 ft 0 kts 134°